Showing default

TRANSIT 5E 3, 705

Orbit data source: Space-Track

TRANSIT 5E 3, 705 is a payload satellite owned by USN BuWeps (US) in LEO that was launched on Thu, 05 Dec 1963 UTC via a THOR ABLESTAR launch vehicle from the Air Force Western Test Range (AFWTR). Payload-class satellites include a variety of spacecraft equipped with specific instruments for various scientific and technological missions. These include communications satellites like Starlink; space stations such as the ISS; scientific satellites like the Hubble; Earth observation satellites from companies like Planet Labs, Umbra, and HawkEye 360; GPS; miniature CubeSats for education and research; and military/defense satellites.

Loading next visibility...
Identifier
705, 1963-049C
Orbit
LEO
Country
Flag of USUS
Related business
Manufacturer
APL
Mission
Civil Science
Bus & Motor
TRANSIT 5, Unknown motor
Mass
52 kg wet, 52 kg dry
Launch date (UTC)
1963-12-05 (62 years ago)
Launch vehicle
THOR ABLESTAR
Launch site
Air Force Western Test Range (AFWTR)
Object type
Payload
Rocket body
Debris
Shape & HBR
Oct Cyl + 4 Pan, 1.5 m
Radar Cross Section
0.892 m², Large (>1 m²)

Expand to show TLE details & history
Last TLE update: 1 day ago

TLE from 1 day ago
0 TRANSIT 5E 3
1 00705U 63049C   25242.04897000  .00000078  00000-0  11177-3 0  9992
2 00705  89.9133  72.7615 0034323  16.1089 101.9518 13.47628110 32884
Epoch: 2025-08-30T01:10Z
TLE epoch observation values (Epoch: 2025-08-30T01:10:31.007Z)
Latitude
61.64222°
Longitude
-103.51636°
Altitude
1,097.016 km
Speed
7.307 km/s
True Right ascension
16h 50m 24s
True Declination
61° 30' 17"
Sunlit
Object was in daylight at epoch
Visualization orbit readout
Latitude
Unknown
Longitude
Unknown
Altitude
Unknown
Speed
Unknown
Apparent Right ascension
Unknown
Apparent Declination
Unknown
Sunlit
N/A
Visualization observer readout
Local Sidereal Time
18:03:43
Azimuth
Unknown
Elevation
Unknown
Doppler factor
Unknown
Orbital elements
Apogee altitude
1,103.643 km
Perigee altitude
1,052.459 km
Semi-major axis
7,456.188 km
Eccentricity
0.00343
Inclination
89.9133°
RAAN
72.7615°
Arg. of periapsis
16.1089°
True anomaly
102.33624°
Mean anomaly
101.9518°
Eccentric anomaly
102.14406°
Mean motion
3.37107 °/min
Orbital period
106.79 mins
BSTAR
0.00011177
Loading maneuver chart data...
Computing Atmospheric mass density...
Loading historical data...
Loading historical data...
Loading historical data...
Loading historical data...
Loading historical data...
Loading historical data...
Loading historical data...

Documentation

Showing up to 5 results
|